Location: Plateau_FTFHS
(35.6000°N, 81.3500°W)
Time: 10:59:53
(UTC-04:00)

Daily predictions for brighter satellites

Satellite Brightness Start Highest point End
(mag) Time Altitude Azimuth Time Altitude Azimuth Time Altitude Azimuth
Cosmos 968 Rocket 3.4 20:19:00 10° NNW 20:24:09 75° ENE 20:29:14 10° SSE
Cosmos 2278 4.2 20:19:03 10° S 20:24:12 37° ESE 20:29:23 10° NE
Meteor 2-4 Rocket 4.0 20:18:40 10° N 20:24:24 54° ENE 20:30:11 10° SSE
Cosmos 1315 Rocket 3.2 20:26:30 10° SSW 20:30:27 70° W 20:34:30 10° N
Lacrosse 5 rocket 3.4 20:29:30 10° NNE 20:30:36 11° NNE 20:31:43 10° NE
ALOS 2.8 20:27:17 10° SE 20:31:39 41° ENE 20:36:02 10° N
Cosmos 1809 Rocket 4.5 20:26:11 10° S 20:32:21 81° E 20:38:30 10° N
Cosmos 1892 Rocket 3.9 20:30:29 10° N 20:34:49 46° E 20:39:06 10° SSE
Cosmos 1025 Rocket 3.0 20:31:46 10° N 20:36:09 81° E 20:40:27 10° S
Cosmos 1455 Rocket 3.4 20:33:14 10° SSE 20:37:17 41° E 20:41:23 10° NNE
Cosmos 2369 4.0 20:32:09 10° S 20:37:27 43° ESE 20:42:48 10° NE
H-2A R/B 3.5 20:34:27 10° SE 20:37:56 34° ENE 20:41:31 10° N
Resurs 1-3 3.6 20:33:34 10° SSE 20:37:57 85° ENE 20:42:21 10° N
NOSS 2-1 (E) 4.0 20:35:27 10° SW 20:39:15 59° NW 20:43:30 10° NNE
Cosmos 1461 4.3 20:38:57 10° N 20:42:05 21° NE 20:44:43 12° E
METEOR-M 4.4 20:37:08 10° S 20:42:28 72° WSW 20:47:49 10° NNW
Meteor 1-23 Rocket 4.2 20:38:32 10° N 20:44:11 74° E 20:49:53 10° SSE
Cosmos 1633 4.1 20:46:35 10° SSW 20:50:04 40° W 20:53:32 10° N
Centaur D-1A AC-32 3.7 20:48:04 10° WSW 20:51:54 22° S 20:54:06 12° SE
FengYun 1-2 T 4.4 20:48:32 10° S 20:54:10 79° WSW 20:59:49 10° NNW
CZ-2D R/B 3.2 20:50:52 10° SSE 20:54:40 64° ENE 20:58:31 10° N
Resurs 01 Rocket 2.8 20:50:49 10° S 20:55:02 44° W 20:59:17 10° NNW
Cosmos 1934 Rocket 3.9 20:48:58 10° S 20:55:03 82° E 21:01:17 10° N
ATLAS 3B CENTAUR R/B 2.2 20:54:42 10° SSW 20:55:10 10° S 20:55:33 10° S
Lacrosse 5 4.1 20:54:19 10° N 20:56:37 13° NNE 20:58:54 10° NE
Hubble Space Telescope 2.3 20:57:14 10° WSW 21:00:38 24° S 21:03:00 15° SE
OE (NEXTSAT) 4.4 20:59:49 10° WNW 21:03:23 76° SW 21:05:33 22° SE
Cosmos 1777 Rocket 4.1 20:59:27 10° NNW 21:04:44 80° WSW 21:09:59 10° SSE
Delta 2 Rocket 3.9 21:05:15 10° W 21:10:55 79° SSW 21:14:10 23° ESE
Cosmos 1544 Rocket 4.4 21:06:47 10° SSW 21:11:01 52° W 21:15:21 10° N
Cosmos 1346 Rocket 2.7 21:08:04 10° N 21:12:01 86° E 21:15:55 11° S
USA 186 1.6 21:09:57 14° SSE 21:12:38 89° W 21:15:39 10° N
FENGYUN 3A 3.8 21:07:46 10° S 21:13:06 78° WSW 21:18:29 10° NNW
Tiangong 1 3.2 21:11:40 10° WNW 21:14:08 21° N 21:16:25 11° NE
Cosmos 2227 Rocket 2.3 21:08:55 10° NNW 21:14:31 60° ENE 21:18:21 20° SE
OTV 4 0.6 21:12:49 10° WNW 21:15:46 63° N 21:16:45 36° ENE
Cosmos 1656 3.7 21:13:17 10° S 21:18:45 55° ESE 21:24:11 10° NNE
Cosmos 1500 3.8 21:18:29 31° ESE 21:19:07 34° E 21:22:33 10° NNE
BREEZE-M TANK 4.3 21:09:50 10° WNW 21:22:07 43° N 21:24:54 18° ENE
NOSS 3-4 (A) 3.8 21:15:13 10° NNW 21:22:21 86° ENE 21:28:01 19° SSE
NOSS 3-4 (C) 3.8 21:15:20 10° NNW 21:22:28 86° ENE 21:28:05 19° SSE
CZ-4 DEB 2.8 21:26:40 50° E 21:26:57 52° ENE 21:30:01 10° N
Cosmos 2082 3.6 21:22:20 10° NNW 21:27:58 73° ENE 21:31:16 25° SSE
Cosmos 2297 Rocket 2.3 21:24:37 10° NNW 21:30:11 57° ENE 21:32:48 31° SE
Envisat 3.3 21:34:13 34° ESE 21:35:57 48° ENE 21:40:50 10° N
Cosmos 2173 Rocket 4.3 21:32:57 23° SSE 21:36:34 46° E 21:42:34 10° NNE
Milstar 3 Cent rocket 4.4 21:16:30 10° W 21:39:08 65° S 21:45:56 28° ESE
SJ-11-01 4.2 21:38:17 31° SSE 21:40:32 80° ENE 21:45:14 10° N
Cosmos 1937 Rocket 4.3 21:38:26 10° N 21:43:08 32° ENE 21:43:40 31° ENE
Cosmos 1515 3.5 21:40:51 10° N 21:44:41 70° E 21:44:57 67° ESE
Cosmos 2100 Rocket 4.0 21:42:26 20° SSE 21:46:53 62° E 21:53:02 10° NNE
OAO 2 Rocket 3.2 21:42:01 10° WSW 21:47:03 78° S 21:48:32 47° E
ASTEX 1 4.3 21:42:48 10° NNE 21:46:25 30° ENE 21:46:25 30° ENE
Cosmos 2061 Rocket 4.1 21:44:13 26° SSE 21:47:43 56° E 21:53:49 10° NNE
Cosmos 1743 3.9 21:53:16 31° NE 21:53:16 31° NE 21:55:34 10° NNE
YAOGAN 11 4.3 21:50:15 33° S 21:52:12 72° WSW 21:56:42 10° NNW
Cosmos 2150 Rocket 4.1 21:48:41 10° N 21:53:44 54° ENE 21:54:22 50° E
Iridium 4 Rocket 3.5 21:49:07 10° N 21:54:10 69° W 21:56:49 25° SSW
Cosmos 1825 Rocket 4.4 21:52:06 10° N 21:55:21 35° NE 21:55:21 35° NE
Cosmos 1975 4.1 21:52:26 10° SSW 21:56:19 42° W 22:00:15 10° N
DELTA 2 R/B (1) 3.6 21:53:21 10° WNW 21:58:55 70° NNE 22:00:25 48° E
Cosmos 1066 Rocket 4.1 21:56:01 10° N 22:01:43 81° E 22:03:26 47° SSE
Cosmos 1697 Rocket 2.7 21:59:58 10° SSW 22:05:38 79° WNW 22:11:18 10° NNE
H-2A R/B 2.2 22:06:31 59° NNE 22:06:31 59° NNE 22:10:00 10° N
ERS-1 Rocket 3.5 22:07:44 34° SSW 22:09:45 56° W 22:14:41 10° NNW
Lacrosse 5 rocket 1.9 22:06:41 10° NW 22:09:24 47° NW 22:09:24 47° NW
deb Chang Zheng 4 3.9 22:13:15 10° N 22:17:40 65° WNW 22:18:16 58° WSW
Cosmos 1898 Rocket 3.4 22:13:25 10° NNW 22:18:44 82° WSW 22:19:08 75° SSW
Cosmos 1461 4.4 22:17:49 10° NW 22:21:13 27° WSW 22:21:13 27° WSW
Cosmos 1725 Rocket 4.3 22:22:46 47° ENE 22:22:46 47° ENE 22:27:49 10° NNE
Cosmos 1763 Rocket 4.2 22:24:18 41° NNE 22:24:18 41° NNE 22:27:38 10° NNE
Cosmos 1459 Rocket 4.1 22:21:24 28° SSW 22:24:44 68° W 22:30:48 10° N
Cosmos 1980 Rocket 2.1 22:26:51 66° SSW 22:27:43 86° WNW 22:33:27 10° NNE
Cosmos 1939 Rocket 4.2 22:27:38 34° WSW 22:27:49 34° W 22:31:38 10° NNW
ARGOS 3.7 22:30:51 46° NE 22:30:51 46° NE 22:35:04 10° N
Lacrosse 5 2.6 22:35:34 10° NNW 22:39:26 46° N 22:39:26 46° N
SPOT 5 3.4 22:41:22 58° W 22:41:22 58° W 22:45:53 10° NNW
Cosmos 841 Rocket 4.4 22:45:04 42° N 22:45:04 42° N 22:48:29 10° NNE
USA 215 4.0 22:44:53 38° NE 22:45:41 39° NE 22:51:39 10° NNW
BREEZE-M DEB (TANK) 4.5 22:31:04 10° SW 22:47:35 88° NW 22:49:08 54° NE
Meteor 1-21 4.5 22:44:26 10° NNW 22:49:52 67° WNW 22:49:52 67° WNW
Cosmos 2322 Rocket 4.2 23:03:22 18° NNE 23:03:22 18° NNE 23:04:43 10° NNE
Cosmos 2263 Rocket 4.1 22:55:56 10° N 22:58:15 18° NNE 22:58:15 18° NNE
CZ-3C R/B 4.3 22:57:25 10° W 23:09:10 20° SW 23:09:52 20° SW
Cosmos 2297 Rocket 4.4 23:10:16 10° WNW 23:13:39 16° W 23:14:38 16° WSW
H-2A R/B 3.8 23:19:51 26° N 23:19:51 26° N 23:22:01 10° N
BREEZE-M DEB (TANK) 4.4 23:04:06 10° WNW 23:18:23 46° NNE 23:18:46 45° NNE
Terra 4.0 23:23:36 21° N 23:23:36 21° N 23:25:09 10° N
SL-16 R/B 4.2 23:57:21 23° N 23:57:21 23° N 23:59:36 10° N
